| time (UTC) | temp F | wind direction | speed MPH | gust MPH | rain 1hr in | rain 24hr in | rain mn in | humidity % | barometer mb |
| 20260901212024 | 91 | 309 | 0.0 | 0.0 | 185.39 | 0.00 | 0.00 | 56 | 1017.5 |
| 20260901211523 | 91 | 267 | 0.0 | 0.0 | 185.39 | 0.00 | 0.00 | 57 | 1017.6 |
| 20260901211023 | 91 | 267 | 1.0 | 0.0 | 185.39 | 0.00 | 0.00 | 55 | 1017.6 |
| 20260901210523 | 91 | 301 | 1.0 | 0.0 | 185.39 | 0.00 | 0.00 | 55 | 1017.7 |
| 20260901210022 | 91 | 284 | 0.0 | 0.0 | 185.39 | 0.00 | 0.00 | 55 | 1017.7 |
| 20260901205523 | 92 | 120 | 0.0 | 0.0 | 185.39 | 0.00 | 0.00 | 54 | 1017.7 |
| 20260901205023 | 92 | 120 | 0.0 | 0.0 | 185.39 | 0.00 | 0.00 | 54 | 1017.7 |
| 20260901204522 | 92 | 243 | 1.0 | 0.0 | 185.39 | 0.00 | 0.00 | 53 | 1017.7 |
| 20260901203523 | 92 | 226 | 2.0 | 0.0 | 185.39 | 0.00 | 0.00 | 52 | 1017.7 |
| 20260901203022 | 92 | 246 | 2.0 | 0.0 | 185.39 | 0.00 | 0.00 | 52 | 1017.7 |
| 20260901201522 | 92 | 239 | 4.0 | 0.0 | 185.39 | 0.00 | 0.00 | 52 | 1017.5 |
| 20260901201022 | 92 | 256 | 1.0 | 0.0 | 185.39 | 0.00 | 0.00 | 51 | 1017.5 |
| 20260901200522 | 93 | 301 | 0.0 | 0.0 | 185.39 | 0.00 | 0.00 | 50 | 1017.5 |
| 20260901200022 | 93 | 257 | 4.0 | 0.0 | 185.39 | 0.00 | 0.00 | 48 | 1017.4 |
| 20260901195522 | 93 | 256 | 6.0 | 0.0 | 185.39 | 0.00 | 0.00 | 48 | 1017.5 |
| 20260901194022 | 92 | 283 | 2.0 | 0.0 | 185.39 | 0.00 | 0.00 | 52 | 1017.5 |
| 20260901193522 | 91 | 229 | 6.0 | 0.0 | 185.39 | 0.00 | 0.00 | 53 | 1017.5 |
| 20260901193022 | 92 | 198 | 1.0 | 0.0 | 185.39 | 0.00 | 0.00 | 52 | 1017.5 |
| 20260901192522 | 92 | 183 | 3.0 | 0.0 | 185.39 | 0.00 | 0.00 | 53 | 1017.6 |
| 20260901191022 | 91 | 242 | 0.0 | 0.0 | 185.39 | 0.00 | 0.00 | 54 | 1017.5 |
| 20260901190022 | 90 | 146 | 1.0 | 0.0 | 185.39 | 0.00 | 0.00 | 55 | 1017.5 |
| 20260901185522 | 89 | 235 | 3.0 | 0.0 | 185.39 | 0.00 | 0.00 | 57 | 1017.5 |
| 20260901185022 | 88 | 270 | 0.0 | 0.0 | 185.39 | 0.00 | 0.00 | 60 | 1017.5 |
| 20260901184522 | 87 | 270 | 0.0 | 0.0 | 185.39 | 0.00 | 0.00 | 65 | 1017.5 |
| 20260901184023 | 86 | 270 | 0.0 | 0.0 | 185.39 | 0.00 | 0.00 | 68 | 1017.6 |
| 20260901183522 | 86 | 270 | 0.0 | 0.0 | 185.39 | 0.00 | 0.00 | 68 | 1017.8 |
| 20260901183022 | 86 | 270 | 0.0 | 0.0 | 185.39 | 0.00 | 0.00 | 69 | 1017.9 |
| 20260901182641 | 86 | 270 | 0.0 | 0.0 | 185.39 | 0.00 | 0.00 | 70 | 1017.9 |
| 20260901182522 | 86 | 270 | 0.0 | 0.0 | 185.39 | 0.00 | 0.00 | 70 | 1017.9 |
| 20260901181522 | 85 | 270 | 0.0 | 0.0 | 185.39 | 0.00 | 0.00 | 72 | 1017.8 |
| 20260901181022 | 85 | 270 | 0.0 | 0.0 | 185.39 | 0.00 | 0.00 | 72 | 1017.8 |
| 20260901180522 | 85 | 270 | 0.0 | 0.0 | 185.39 | 0.00 | 0.00 | 71 | 1017.8 |
| 20260901180022 | 85 | 270 | 0.0 | 0.0 | 185.39 | 0.00 | 0.00 | 72 | 1018.0 |
| 20260901175522 | 85 | 270 | 0.0 | 0.0 | 185.39 | 0.00 | 0.00 | 71 | 1018.1 |
| 20260901174022 | 85 | 270 | 0.0 | 0.0 | 185.39 | 0.00 | 0.00 | 72 | 1018.3 |
| 20260901173022 | 84 | 270 | 0.0 | 0.0 | 185.39 | 0.00 | 0.00 | 72 | 1018.4 |
| 20260901172522 | 84 | 270 | 0.0 | 0.0 | 185.39 | 0.00 | 0.00 | 72 | 1018.5 |
| 20260901171522 | 84 | 270 | 0.0 | 0.0 | 185.39 | 0.00 | 0.00 | 73 | 1018.8 |
| 20260901171234 | 84 | 270 | 0.0 | 0.0 | 185.39 | 0.00 | 0.00 | 73 | 1018.8 |
| 20260901171022 | 84 | 270 | 0.0 | 0.0 | 185.39 | 0.00 | 0.00 | 73 | 1018.8 |
| 20260901170522 | 83 | 270 | 0.0 | 0.0 | 185.39 | 0.00 | 0.00 | 72 | 1018.8 |
| 20260901170022 | 83 | 270 | 0.0 | 0.0 | 185.39 | 0.00 | 0.00 | 72 | 1018.9 |
| 20260901165022 | 83 | 270 | 0.0 | 0.0 | 185.39 | 0.00 | 0.00 | 72 | 1018.9 |
| 20260901164522 | 83 | 270 | 0.0 | 0.0 | 185.39 | 0.00 | 0.00 | 72 | 1019.0 |
| 20260901163022 | 83 | 270 | 0.0 | 0.0 | 185.39 | 0.00 | 0.00 | 72 | 1019.2 |
| 20260901162522 | 82 | 270 | 0.0 | 0.0 | 185.39 | 0.00 | 0.00 | 73 | 1019.1 |
| 20260901160522 | 82 | 270 | 0.0 | 0.0 | 185.39 | 0.00 | 0.00 | 73 | 1019.3 |
| 20260901160022 | 81 | 270 | 0.0 | 0.0 | 185.39 | 0.00 | 0.00 | 73 | 1019.2 |
| 20260901155522 | 81 | 270 | 0.0 | 0.0 | 185.39 | 0.00 | 0.00 | 74 | 1019.2 |
| 20260901152522 | 80 | 270 | 0.0 | 0.0 | 185.39 | 0.00 | 0.00 | 77 | 1019.3 |
| 20260901151522 | 80 | 270 | 0.0 | 0.0 | 185.39 | 0.00 | 0.00 | 76 | 1019.5 |
| 20260901151022 | 80 | 270 | 0.0 | 0.0 | 185.39 | 0.00 | 0.00 | 76 | 1019.5 |
| 20260901150522 | 80 | 270 | 0.0 | 0.0 | 185.39 | 0.00 | 0.00 | 75 | 1019.5 |
| 20260901145522 | 80 | 270 | 0.0 | 0.0 | 185.39 | 0.00 | 0.00 | 75 | 1019.4 |
| 20260901145022 | 80 | 270 | 0.0 | 0.0 | 185.39 | 0.00 | 0.00 | 74 | 1019.1 |
| 20260901144022 | 80 | 270 | 0.0 | 0.0 | 185.39 | 0.00 | 0.00 | 74 | 1019.1 |
| 20260901143522 | 80 | 270 | 0.0 | 0.0 | 185.39 | 0.00 | 0.00 | 75 | 1019.0 |
| 20260901143022 | 80 | 270 | 0.0 | 0.0 | 185.39 | 0.00 | 0.00 | 74 | 1018.9 |
| 20260901141522 | 80 | 270 | 0.0 | 0.0 | 185.39 | 0.00 | 0.00 | 76 | 1018.9 |
| 20260901140523 | 80 | 270 | 0.0 | 0.0 | 185.39 | 0.00 | 0.00 | 76 | 1018.8 |
| 20260901140022 | 79 | 270 | 0.0 | 0.0 | 185.39 | 0.00 | 0.00 | 76 | 1018.8 |
| 20260901135522 | 79 | 280 | 0.0 | 0.0 | 185.39 | 0.00 | 0.00 | 76 | 1018.8 |
| 20260901135022 | 79 | 280 | 0.0 | 0.0 | 185.39 | 0.00 | 0.00 | 76 | 1018.8 |
| 20260901134022 | 79 | 280 | 0.0 | 0.0 | 185.39 | 0.00 | 0.00 | 77 | 1018.4 |
| 20260901133022 | 78 | 280 | 0.0 | 0.0 | 185.39 | 0.00 | 0.00 | 78 | 1018.5 |
| 20260901132522 | 78 | 280 | 0.0 | 0.0 | 185.39 | 0.00 | 0.00 | 78 | 1018.5 |
| 20260901130021 | 77 | 280 | 0.0 | 0.0 | 185.39 | 0.00 | 0.00 | 81 | 1018.6 |
| 20260901124522 | 77 | 280 | 0.0 | 0.0 | 185.39 | 0.00 | 0.00 | 82 | 1018.8 |
| 20260901124022 | 76 | 280 | 0.0 | 0.0 | 185.39 | 0.00 | 0.00 | 82 | 1018.9 |
| 20260901123021 | 76 | 280 | 0.0 | 0.0 | 185.39 | 0.00 | 0.00 | 83 | 1018.9 |
| 20260901122522 | 76 | 280 | 0.0 | 0.0 | 185.39 | 0.00 | 0.00 | 83 | 1018.9 |
| 20260901121521 | 76 | 280 | 0.0 | 0.0 | 185.39 | 0.00 | 0.00 | 84 | 1018.8 |
| 20260901121022 | 76 | 280 | 0.0 | 0.0 | 185.39 | 0.00 | 0.00 | 84 | 1018.8 |
| 20260901115523 | 75 | 280 | 0.0 | 0.0 | 185.39 | 0.00 | 0.00 | 84 | 1018.5 |
| 20260901114521 | 75 | 280 | 0.0 | 0.0 | 185.39 | 0.00 | 0.00 | 84 | 1018.5 |
| 20260901114022 | 75 | 280 | 0.0 | 0.0 | 185.39 | 0.00 | 0.00 | 84 | 1018.4 |
| 20260901113522 | 75 | 280 | 0.0 | 0.0 | 185.39 | 0.00 | 0.00 | 84 | 1018.4 |
| 20260901112522 | 75 | 280 | 0.0 | 0.0 | 185.39 | 0.00 | 0.00 | 84 | 1018.3 |
| 20260901112024 | 75 | 280 | 0.0 | 0.0 | 185.39 | 0.00 | 0.00 | 85 | 1018.2 |
| 20260901111521 | 75 | 280 | 0.0 | 0.0 | 185.39 | 0.00 | 0.00 | 85 | 1018.2 |
| 20260901111022 | 75 | 280 | 0.0 | 0.0 | 185.39 | 0.00 | 0.00 | 85 | 1018.2 |
| 20260901110021 | 75 | 280 | 0.0 | 0.0 | 185.39 | 0.00 | 0.00 | 85 | 1018.2 |
| 20260901105022 | 75 | 280 | 0.0 | 0.0 | 185.39 | 0.00 | 0.00 | 85 | 1018.2 |
| 20260901104521 | 75 | 280 | 0.0 | 0.0 | 185.39 | 0.00 | 0.00 | 85 | 1018.1 |
| 20260901104022 | 75 | 280 | 0.0 | 0.0 | 185.39 | 0.00 | 0.00 | 85 | 1018.0 |
| 20260901103021 | 75 | 280 | 0.0 | 0.0 | 185.39 | 0.00 | 0.00 | 85 | 1018.1 |
| 20260901101522 | 75 | 280 | 0.0 | 0.0 | 185.39 | 0.00 | 0.00 | 86 | 1017.9 |
| 20260901100021 | 74 | 280 | 0.0 | 0.0 | 185.39 | 0.00 | 0.00 | 86 | 1017.8 |
| 20260901094521 | 75 | 280 | 0.0 | 0.0 | 185.39 | 0.00 | 0.00 | 86 | 1017.8 |
| 20260901094022 | 75 | 280 | 0.0 | 0.0 | 185.39 | 0.00 | 0.00 | 85 | 1017.8 |
| 20260901093021 | 75 | 280 | 0.0 | 0.0 | 185.39 | 0.00 | 0.00 | 85 | 1017.8 |
| 20260901092522 | 75 | 280 | 0.0 | 0.0 | 185.39 | 0.00 | 0.00 | 85 | 1017.7 |
| 20260901091521 | 75 | 280 | 0.0 | 0.0 | 185.39 | 0.00 | 0.00 | 85 | 1017.7 |
| 20260901090021 | 75 | 280 | 0.0 | 0.0 | 185.39 | 0.00 | 0.00 | 85 | 1017.7 |
| 20260901085522 | 75 | 280 | 0.0 | 0.0 | 185.39 | 0.00 | 0.00 | 85 | 1017.7 |
| 20260901084521 | 75 | 280 | 0.0 | 0.0 | 185.39 | 0.00 | 0.00 | 85 | 1017.6 |
| 20260901081023 | 75 | 280 | 0.0 | 0.0 | 185.39 | 0.00 | 0.00 | 85 | 1017.6 |
| 20260901080021 | 75 | 280 | 0.0 | 0.0 | 185.39 | 0.00 | 0.00 | 84 | 1017.5 |
| 20260901075022 | 75 | 280 | 0.0 | 0.0 | 185.39 | 0.00 | 0.00 | 84 | 1017.5 |
| 20260901070021 | 75 | 280 | 0.0 | 0.0 | 185.39 | 0.00 | 0.00 | 85 | 1017.5 |
| 20260901062521 | 75 | 280 | 0.0 | 0.0 | 185.39 | 0.00 | 0.00 | 85 | 1017.6 |
| 20260901055521 | 76 | 280 | 0.0 | 0.0 | 185.39 | 0.00 | 0.00 | 84 | 1017.6 |
| 20260901054521 | 76 | 280 | 0.0 | 0.0 | 185.39 | 0.00 | 0.00 | 84 | 1017.6 |
| 20260901053021 | 76 | 280 | 0.0 | 0.0 | 185.39 | 0.00 | 0.00 | 83 | 1018.0 |
| 20260901051521 | 76 | 280 | 0.0 | 0.0 | 185.39 | 0.00 | 0.00 | 83 | 1018.0 |
| 20260901050022 | 77 | 280 | 0.0 | 0.0 | 185.39 | 0.00 | 0.00 | 82 | 1017.9 |
| 20260901045521 | 77 | 280 | 0.0 | 0.0 | 185.39 | 0.00 | 0.00 | 81 | 1017.7 |
| 20260901044021 | 77 | 280 | 0.0 | 0.0 | 185.39 | 0.00 | 0.00 | 80 | 1017.7 |
| 20260901043021 | 78 | 280 | 0.0 | 0.0 | 185.39 | 0.00 | 0.00 | 79 | 1017.8 |
| 20260901041021 | 78 | 280 | 0.0 | 0.0 | 185.39 | 0.00 | 0.00 | 79 | 1017.6 |
| 20260901040520 | 78 | 280 | 0.0 | 0.0 | 185.39 | 0.00 | 0.00 | 79 | 1017.6 |
| 20260901040020 | 78 | 280 | 0.0 | 0.0 | 185.39 | 0.00 | 0.00 | 78 | 1017.5 |
| 20260901035021 | 78 | 280 | 0.0 | 0.0 | 185.39 | 0.00 | 0.00 | 78 | 1017.5 |
| 20260901034021 | 78 | 280 | 0.0 | 0.0 | 185.39 | 0.00 | 0.00 | 79 | 1017.2 |
| 20260901032521 | 77 | 280 | 0.0 | 0.0 | 185.39 | 0.00 | 0.00 | 80 | 1017.3 |
| 20260901032020 | 77 | 280 | 0.0 | 0.0 | 185.39 | 0.00 | 0.00 | 80 | 1017.1 |
| 20260901031520 | 77 | 280 | 0.0 | 0.0 | 185.39 | 0.00 | 0.00 | 81 | 1017.2 |
| 20260901025021 | 76 | 280 | 0.0 | 0.0 | 185.39 | 0.00 | 0.00 | 83 | 1017.6 |
| 20260901024022 | 76 | 280 | 0.0 | 0.0 | 185.39 | 0.00 | 0.00 | 84 | 1017.9 |
| 20260901023520 | 76 | 280 | 0.0 | 0.0 | 185.39 | 0.00 | 0.00 | 84 | 1018.1 |
| 20260901023021 | 76 | 280 | 0.0 | 0.0 | 185.39 | 0.00 | 0.00 | 84 | 1018.2 |
| 20260901022521 | 76 | 280 | 0.0 | 0.0 | 185.39 | 0.00 | 0.00 | 84 | 1018.2 |
| 20260901022054 | 76 | 280 | 0.0 | 0.0 | 185.39 | 0.00 | 0.00 | 84 | 1018.2 |
| 20260901022021 | 76 | 280 | 0.0 | 0.0 | 185.39 | 0.00 | 0.00 | 84 | 1018.2 |
| 20260901021520 | 76 | 280 | 0.0 | 0.0 | 185.39 | 0.00 | 0.00 | 84 | 1018.3 |
| 20260901021021 | 76 | 280 | 0.0 | 0.0 | 185.39 | 0.00 | 0.00 | 84 | 1018.4 |
| 20260901020605 | 76 | 280 | 0.0 | 0.0 | 185.39 | 0.00 | 0.00 | 84 | 1018.5 |
| 20260901020521 | 76 | 280 | 0.0 | 0.0 | 185.39 | 0.00 | 0.00 | 84 | 1018.5 |
| 20260901020020 | 77 | 280 | 0.0 | 0.0 | 185.39 | 0.00 | 0.00 | 83 | 1018.4 |
| 20260901015521 | 77 | 280 | 0.0 | 0.0 | 185.39 | 0.00 | 0.00 | 83 | 1018.5 |
| 20260901015020 | 77 | 280 | 0.0 | 0.0 | 185.39 | 0.00 | 0.00 | 83 | 1018.8 |
| 20260901014520 | 77 | 280 | 0.0 | 0.0 | 185.39 | 0.00 | 0.00 | 83 | 1018.8 |
| 20260901014021 | 77 | 280 | 0.0 | 0.0 | 185.39 | 0.00 | 0.00 | 83 | 1018.9 |
| 20260901013649 | 77 | 280 | 0.0 | 0.0 | 185.39 | 0.00 | 0.00 | 82 | 1018.9 |
| 20260901013520 | 77 | 280 | 0.0 | 0.0 | 185.39 | 0.00 | 0.00 | 82 | 1018.9 |
| 20260901013021 | 78 | 280 | 0.0 | 0.0 | 185.39 | 0.00 | 0.00 | 82 | 1019.0 |
| 20260901012521 | 78 | 280 | 0.0 | 0.0 | 185.39 | 0.00 | 0.00 | 82 | 1019.1 |
| 20260901011520 | 78 | 280 | 0.0 | 0.0 | 185.39 | 0.00 | 0.00 | 82 | 1019.0 |
| 20260901010520 | 78 | 280 | 0.0 | 0.0 | 185.39 | 0.00 | 0.00 | 81 | 1018.9 |
| 20260901010020 | 79 | 280 | 0.0 | 0.0 | 185.39 | 0.00 | 0.00 | 81 | 1018.8 |
| 20260901005521 | 79 | 280 | 0.0 | 0.0 | 185.39 | 0.00 | 0.00 | 80 | 1018.8 |
| 20260901005020 | 79 | 280 | 0.0 | 0.0 | 185.39 | 0.00 | 0.00 | 80 | 1018.6 |
| 20260901004520 | 79 | 280 | 0.0 | 0.0 | 185.39 | 0.00 | 0.00 | 79 | 1018.5 |
| 20260901004021 | 79 | 280 | 0.0 | 0.0 | 185.39 | 0.00 | 0.00 | 79 | 1018.4 |
| 20260901003521 | 80 | 280 | 0.0 | 0.0 | 185.39 | 0.00 | 0.00 | 79 | 1018.4 |
| 20260901003021 | 80 | 280 | 0.0 | 0.0 | 185.39 | 0.00 | 0.00 | 79 | 1018.4 |
| 20260901002521 | 80 | 280 | 0.0 | 0.0 | 185.39 | 0.00 | 0.00 | 79 | 1018.3 |
| 20260901001021 | 81 | 280 | 0.0 | 0.0 | 185.39 | 0.00 | 0.00 | 77 | 1018.4 |
| 20260831235521 | 82 | 280 | 0.0 | 0.0 | 185.39 | 0.00 | 0.00 | 76 | 1018.5 |
| 20260831234521 | 82 | 280 | 0.0 | 0.0 | 185.39 | 0.00 | 0.00 | 75 | 1018.4 |
| 20260831234057 | 83 | 280 | 0.0 | 0.0 | 185.39 | 0.00 | 0.00 | 75 | 1018.3 |
| 20260831234021 | 83 | 280 | 0.0 | 0.0 | 185.39 | 0.00 | 0.00 | 75 | 1018.3 |
| 20260831233522 | 83 | 280 | 0.0 | 0.0 | 185.39 | 0.00 | 0.00 | 74 | 1018.4 |
| 20260831232521 | 84 | 280 | 0.0 | 0.0 | 185.39 | 0.00 | 0.00 | 74 | 1018.3 |
| 20260831231522 | 84 | 280 | 0.0 | 0.0 | 185.39 | 0.00 | 0.00 | 74 | 1018.2 |
| 20260831231021 | 84 | 280 | 0.0 | 0.0 | 185.39 | 0.00 | 0.00 | 73 | 1018.3 |
| 20260831230520 | 84 | 280 | 0.0 | 0.0 | 185.39 | 0.00 | 0.00 | 73 | 1018.3 |
| 20260831230022 | 84 | 280 | 0.0 | 0.0 | 185.39 | 0.00 | 0.00 | 72 | 1018.3 |
| 20260831225521 | 84 | 280 | 0.0 | 0.0 | 185.39 | 0.00 | 0.00 | 72 | 1018.2 |
| 20260831224021 | 84 | 280 | 0.0 | 0.0 | 185.39 | 0.00 | 0.00 | 71 | 1018.2 |
| 20260831223020 | 84 | 280 | 0.0 | 0.0 | 185.39 | 0.00 | 0.00 | 71 | 1018.3 |
| 20260831222521 | 84 | 280 | 0.0 | 0.0 | 185.39 | 0.00 | 0.00 | 70 | 1018.2 |
| 20260831221520 | 84 | 280 | 0.0 | 0.0 | 185.39 | 0.00 | 0.00 | 69 | 1018.0 |
| 20260831221021 | 85 | 280 | 0.0 | 0.0 | 185.39 | 0.00 | 0.00 | 68 | 1018.0 |
| 20260831220604 | 85 | 280 | 0.0 | 0.0 | 185.39 | 0.00 | 0.00 | 67 | 1017.9 |
| 20260831220520 | 85 | 280 | 0.0 | 0.0 | 185.39 | 0.00 | 0.00 | 67 | 1017.9 |
| 20260831220021 | 85 | 280 | 0.0 | 0.0 | 185.39 | 0.00 | 0.00 | 65 | 1017.9 |
| 20260831214021 | 85 | 280 | 0.0 | 0.0 | 185.39 | 0.00 | 0.00 | 63 | 1017.8 |
| 20260831213520 | 85 | 280 | 0.0 | 0.0 | 185.39 | 0.00 | 0.00 | 63 | 1017.9 |
| 20260831213021 | 85 | 280 | 0.0 | 0.0 | 185.39 | 0.00 | 0.00 | 63 | 1017.9 |
| 20260831212521 | 85 | 280 | 0.0 | 0.0 | 185.39 | 0.00 | 0.00 | 63 | 1017.8 |